Regional Weather Roundup
Issued by NWS Jackson, KY

Home | Current Version | Previous Version | Graphics & Text | Print | Product List | Glossary On
Versions: 1 2 3 4 5 6 7 8 9 10 11 12 13 14 15 16 17 18 19 20 21 22 23 24 25 26 27 28
000
ASUS43 KJKL 211210
RWRJKL

EAST KENTUCKY HOURLY WEATHER ROUNDUP
NATIONAL WEATHER SERVICE JACKSON KY
800 AM EDT FRI JUL 21 2017

NOTE: "FAIR" INDICATES FEW OR NO CLOUDS BELOW 12,000 FEET WITH
NO SIGNIFICANT WEATHER AND/OR OBSTRUCTIONS TO VISIBILITY.

* THESE REPORTS ARE NOT UNDER NWS QUALITY CONTROL AND MAY NOT
  REPORT WEATHER SUCH AS PRECIPITATION AND FOG.

KYZ079-080-083-085-087-088-110-112-115-119-120-211300
...EASTERN KENTUCKY...

CITY           SKY/WX    TMP DP  RH WIND       PRES   REMARKS
JACKSON        CLOUDY    75  71  87 CALM      30.09R
6HR MIN TEMP:  73; 6HR MAX TEMP:  75;

LONDON         CLOUDY    75  71  87 CALM      30.09R FOG
6HR MIN TEMP:  72; 6HR MAX TEMP:  75;

SOMERSET*      CLOUDY    72  72 100 CALM      30.10R FOG
MONTICELLO*    MOSUNNY   73  72  96 W8        30.10R FOG
6HR MIN TEMP:  69; 6HR MAX TEMP:  73;

WILLIAMSBURG*  MOSUNNY   72  72 100 CALM      30.10R
MIDDLESBORO*   CLOUDY    71  71 100 CALM      30.12R FOG
6HR MIN TEMP:  70; 6HR MAX TEMP:  71;

HARLAN APT*    CLOUDY    68  64  88 CALM      30.13R
PIKE CO APT*   PTSUNNY   73  73 100 S3        30.10R
BIG SANDY APT* CLOUDY    75  73  91 S3        30.08R
6HR MIN TEMP:  73; 6HR MAX TEMP:  76;

MOREHEAD APT*  PTSUNNY   77  73  88 SW6       30.07R
ASHLAND*         N/A    N/A N/A N/A MISG        N/A  THUNDER
$$

KYZ035-036-041-042-044-050-067-078-099-211300
...CENTRAL KENTUCKY...

CITY           SKY/WX    TMP DP  RH WIND       PRES   REMARKS
MT STERLING*   CLOUDY    77  73  88 W5        30.08R
FLEMING/MASON* CLOUDY    78  73  85 SW8       30.05S
DANVILLE*      PTSUNNY   73  72  94 SW3       30.09R FOG
LEXINGTON      CLOUDY    77  72  84 SW7       30.06R HAZE
6HR MIN TEMP:  75; 6HR MAX TEMP:  78;

FRANKFORT      CLOUDY    77  72  84 CALM      30.04R HAZE
6HR MIN TEMP:  76; 6HR MAX TEMP:  77;

LOUISVILLE     CLOUDY    81  74  79 SW6       30.03R HAZE
6HR MIN TEMP:  80; 6HR MAX TEMP:  83;

LEBANON*         N/A     75  73  94 S6        30.07R
GLASGOW*       SUNNY     75  75 100 CALM      30.07R FOG
BOWLING GREEN  CLOUDY    78  75  90 SW3       30.06R
6HR MIN TEMP:  76; 6HR MAX TEMP:  79;

$$

KYZ091>093-OHZ055-061-077-WVZ005-015-034-035-042-211300
...SOUTHERN OHIO/WEST VIRGINIA...

CITY           SKY/WX    TMP DP  RH WIND       PRES   REMARKS
COVINGTON      TSTM      78  75  90 NW20      30.06R
COLUMBUS       CLOUDY    80  76  87 SW3       29.98R
DAYTON         TSTM      71  69  93 NW25G38   30.05R FOG
WILMINGTON     CLOUDY    77  75  93 W9        30.01R FOG
HUNTINGTON     SUNNY     77  73  87 S3        30.03R
CHARLESTON     CLOUDY    76  70  82 CALM      30.04R
PINEVILLE*     MOSUNNY   68  66  93 MISG      30.17R
BECKLEY        MOSUNNY   71  66  84 SW5       30.14R
BLUEFIELD      CLOUDY    68  64  87 W6        30.18R
LOGAN CO APT*  PTSUNNY   72  70  94 CALM      30.10R
$$

VAZ002-007-008-TNZ017-027-036-066-071-211300
...SOUTHWEST VIRGINIA/EAST TENNESSEE...

CITY           SKY/WX    TMP DP  RH WIND       PRES   REMARKS
WISE*          CLOUDY    73  64  73 CALM      30.19R
JONESVILLE*      N/A     68  66  94 CALM      30.13S
ABINGDON*      CLOUDY    71  68  88 CALM      30.15R
BRISTOL        MOSUNNY   71  69  93 CALM      30.12R
MORRISTOWN*    CLOUDY    73  70  88 CALM      30.10R
SEVIERVILLE*   SUNNY     72  66  83 CALM      30.08R
KNOXVILLE      PTSUNNY   73  69  87 CALM      30.08R
LAFOLLETTE*    PTSUNNY   72  72 100 CALM      30.13R FOG
OAK RIDGE      MOSUNNY   74  71  91 CALM      30.10R FOG
CROSSVILLE     PTSUNNY   70  68  93 CALM      30.15R FOG
NASHVILLE      CLOUDY    77  73  87 CALM      30.07R FOG
$$

...KEY TO REMARKS...
VSB - VISIBILITY IN MILES
WCI - WIND CHILL INDEX
HX  - HEAT INDEX

$$




USA.gov is the U.S. government's official web portal to all federal, state and local government web resources and services.